Portada
METAR-TAF:

METAR-TAF

Aeroports :

Pontoise, França

latitud: 49-05-48N, longitud: 002-02-27E, altitud: 99 m

Observació

L'informe es va fer fa 13 minuts, a les 07:30 UTC
Vent 9 kt del Oest, variant entre Oest/Sud-Oest i Nord-Oest
Temperatura 2°C
Humitat 87%
Pressió 1004 hPa
Visibilitat 10 km o més
Núvols disperses a una alçada de 1600 ft
Núvols disperses a una alçada de 4200 ft

METAR: LFPT 260730Z AUTO 28009KT 250V310 9999 SCT016 SCT042 02/00 Q1004

Hora: 08:43 (07:43 UTC)


TAF: manca

Observacions i pronòstics meteorològics de més de 4000 aeroports (METAR i TAF).

Les estacions disponibles són els punts grocs i vermells al mapa.

Posi el ratolí al punt desitjat per veure el nom de l'estació.

Feu clic per veure les observacions i els pronòstics meteorològics.

Per canviar el mapa: feu clic els botons verds amb una creu de color negre per apropar; al botó verd amb un guió per allunyar la imatge; o en les fletxes verdes per a mapes adjacents.


METAR-TAF: